643  
ASUS45 KSLC 312310  
RWRUT  
 
UTAH REGIONAL WEATHER ROUNDUP  
NATIONAL WEATHER SERVICE SALT LAKE CITY UT  
500 PM MDT SUN MAY 31 2020  
 
UTZ001>011-023>025-010000-  
 
NORTHERN UTAH  
 
CITY SKY/WX TMP DP RH WIND PRES REMARKS
 
BRIGHAM CITY MOSUNNY 86 20 8 W7 29.90F  
HILL AFB MOSUNNY 85 30 14 NW10 29.91F  
LOGAN MOSUNNY 88 32 13 W8 29.91F  
OGDEN MOSUNNY 88 21 8 W8 29.89F  
SALT LAKE CITY PTSUNNY 91 33 12 NW10 29.85F  
TOOELE VALLEY MOSUNNY 82 37 20 N17 29.88F  
WENDOVER PTSUNNY 85 22 10 CALM 29.87F  
HEBER CITY N/A 88 32 13 SW9G23 29.96F  
WEST JORDAN MOSUNNY 92 38 15 S18G31 29.89F  
 

 
 
UTZ011>015-024>027-010000-  
 
CENTRAL/NORTHEAST UTAH  
 
CITY SKY/WX TMP DP RH WIND PRES REMARKS
 
PROVO AIRPORT PTSUNNY 90 37 15 VRB6 29.89F  
MOAB/CANYONLAN CLOUDY 89 45 21 W31G41 29.93S  
DELTA MOSUNNY 90 19 7 SW24G36 29.92F  
PRICE CLOUDY 75 48 38 CALM 30.07S  
RICHFIELD SUNNY 88 34 14 S18G26 29.94F  
ROOSEVELT CLOUDY 77 50 38 SW10 30.04F  
DUCHESNE CLEAR 79 39 24 SE16G26 30.05F  
VERNAL CLOUDY 77 48 35 S8 30.02F  
 

 
 
UTZ013>016-019>022-027-010000-  
 
SOUTHERN UTAH  
 
CITY SKY/WX TMP DP RH WIND PRES REMARKS
 
BRYCE CANYON PTSUNNY 75 30 19 S24G36 30.18F  
CEDAR CITY PTSUNNY 83 26 12 SW18G28 30.01S  
MILFORD MOSUNNY 87 26 11 SW23G40 29.94F  
ST GEORGE PTCLDY 94 29 10 W14 29.83F  
HANKSVILLE PTSUNNY 81 52 36 N6 29.94F  
BLANDING N/A 72 56 56 NE8G16 30.16F  
 

 
 
REGIONAL REPORTS COLORADO/ARIZONA  
 
CITY SKY/WX TMP DP RH WIND PRES REMARKS
 
CRAIG, CO PTSUNNY 83 40 21 SW14G23 30.09F  
GRAND JUNCTION PTSUNNY 91 38 15 SE8 29.96F  
RIFLE, CO PTSUNNY 88 39 17 N7 30.03F  
MONTROSE, CO CLOUDY 77 47 34 S16 30.12F  
CORTEZ, CO CLOUDY 84 39 20 W9 30.12S  
COLORADO CITY N/A 91 28 10 W10G22 30.01F  
PAGE, AZ PTSUNNY 94 33 11 SW9G20 29.91F  
GRAND CANYON PTSUNNY 80 31 16 SW22G36 30.15F  
KINGMAN, AZ CLOUDY 90 23 9 SW20 29.93S  
FLAGSTAFF, AZ MOSUNNY 79 27 14 SW23G38 30.19S  
 

 
 
REGIONAL REPORTS NEVADA/IDAHO/WYOMING  
 
CITY SKY/WX TMP DP RH WIND PRES REMARKS
 
LAS VEGAS, NV CLOUDY 95 28 9 SW10 29.79F  
ELY, NY SUNNY 82 22 11 S21G28 29.99F  
ELKO, NV MOSUNNY 81 29 15 VRB3 29.93F  
POCATELLO, ID MOSUNNY 76 42 29 N7 29.98F  
BURLEY, ID PTSUNNY 74 43 32 NW3 29.94F  
EVANSTON, WY MOSUNNY 78 29 16 SW22G32 30.09S  
ROCK SPRINGS, CLOUDY 75 39 27 S17G24 30.10F  
KEMMERER, WY MOSUNNY 77 25 14 SW25G37 30.10F  
 

 
 
 
CLICK HERE TO GO TO PREVIOUS BULLETINS.

The Nexlab UT Page Main Text Page